GW6270 Weather Reports


time (UTC)temp
C
wind
direction
speed
KPH
gust
KPH
rain 1hr
cm
rain 24hr
cm
rain mn
cm
humidity
%
barometer
mb
20260906225901 20 211 1.6 3.2 0.00 0.00 0.00 66 1015.3
20260906225357 20 207 1.6 4.8 0.00 0.00 0.00 66 1015.6
20260906224852 20 209 3.2 4.8 0.00 0.00 0.00 66 1015.5
20260906224349 20 69 1.6 3.2 0.00 0.00 0.00 66 1015.7
20260906223845 20 217 0.0 3.2 0.00 0.00 0.00 67 1015.8
20260906223341 20 286 1.6 3.2 0.00 0.00 0.00 67 1015.9
20260906222839 20 277 1.6 4.8 0.00 0.00 0.00 67 1015.9
20260906222338 20 281 3.2 3.2 0.00 0.00 0.00 67 1015.9
20260906221836 20 248 3.2 11.3 0.00 0.00 0.00 67 1015.8
20260906221336 20 79 1.6 3.2 0.00 0.00 0.00 67 1015.6
20260906220831 20 248 0.0 3.2 0.00 0.00 0.00 67 1016.0
20260906220326 20 195 1.6 4.8 0.00 0.00 0.00 67 1016.1
20260906215825 20 230 1.6 3.2 0.00 0.00 0.00 67 1015.8
20260906215320 20 26 3.2 6.4 0.00 0.00 0.00 68 1015.9
20260906214819 19 203 3.2 6.4 0.00 0.00 0.00 68 1015.8
20260906214314 19 3 3.2 4.8 0.00 0.00 0.00 69 1015.8
20260906213813 19 346 3.2 6.4 0.00 0.00 0.00 68 1015.8
20260906213312 19 356 3.2 4.8 0.00 0.00 0.00 69 1015.9
20260906212810 19 228 1.6 11.3 0.00 0.00 0.00 69 1015.8
20260906212306 20 162 0.0 3.2 0.00 0.00 0.00 69 1015.9
20260906211805 19 168 0.0 1.6 0.00 0.00 0.00 70 1016.1
20260906211300 19 352 4.8 4.8 0.00 0.00 0.00 69 1015.9
20260906210755 19 336 3.2 4.8 0.00 0.00 0.00 71 1016.0
20260906210255 19 323 4.8 11.3 0.00 0.00 0.00 71 1015.8
20260906205755 19 318 6.4 6.4 0.00 0.00 0.00 71 1016.1
20260906205252 19 303 3.2 4.8 0.00 0.00 0.00 72 1016.0
20260906204748 18 219 0.0 3.2 0.00 0.00 0.00 73 1016.0
20260906204247 18 211 1.6 3.2 0.00 0.00 0.00 74 1016.0
20260906203746 18 351 4.8 6.4 0.00 0.00 0.00 75 1016.2
20260906203242 18 281 1.6 6.4 0.00 0.00 0.00 75 1016.1
20260906202739 18 76 6.4 9.7 0.00 0.00 0.00 75 1016.1
20260906202238 18 353 4.8 9.7 0.00 0.00 0.00 74 1016.2
20260906201733 18 353 6.4 14.5 0.00 0.00 0.00 73 1016.1
20260906201232 20 54 3.2 9.7 0.00 0.00 0.00 70 1016.4
20260906200728 20 4 6.4 9.7 0.00 0.00 0.00 68 1016.2
20260906200224 20 25 1.6 6.4 0.00 0.00 0.00 68 1016.4
20260906195719 20 298 1.6 6.4 0.00 0.00 0.00 68 1016.5
20260906195216 20 351 3.2 6.4 0.00 0.00 0.00 68 1016.4
20260906194711 20 355 6.4 11.3 0.00 0.00 0.00 68 1016.5
20260906194206 20 131 0.0 3.2 0.00 0.00 0.00 66 1016.6
20260906193701 20 19 3.2 11.3 0.00 0.00 0.00 66 1016.7
20260906193156 21 51 1.6 4.8 0.00 0.00 0.00 63 1016.8
20260906192652 21 50 1.6 6.4 0.00 0.00 0.00 63 1016.5
20260906192152 20 53 0.0 4.8 0.00 0.00 0.00 63 1016.7
20260906191646 20 154 1.6 3.2 0.00 0.00 0.00 65 1016.8
20260906191146 20 322 3.2 4.8 0.00 0.00 0.00 64 1016.8
20260906190640 20 38 1.6 3.2 0.00 0.00 0.00 64 1016.9
20260906190135 19 165 0.0 1.6 0.00 0.00 0.00 66 1017.1
20260906185634 18 145 1.6 9.7 0.00 0.00 0.00 68 1017.1
20260906185133 18 32 4.8 6.4 0.00 0.00 0.00 70 1016.9
20260906184627 18 58 3.2 4.8 0.00 0.00 0.00 70 1017.2
20260906184124 17 23 3.2 6.4 0.00 0.00 0.00 71 1017.5
20260906183619 17 355 6.4 9.7 0.00 0.00 0.00 71 1017.5
20260906183115 17 13 1.6 9.7 0.00 0.00 0.00 71 1017.7
20260906182609 17 304 3.2 4.8 0.00 0.00 0.00 72 1017.5
20260906182106 17 346 3.2 6.4 0.00 0.00 0.00 72 1017.8
20260906181606 17 42 1.6 6.4 0.00 0.00 0.00 73 1017.7
20260906181102 16 341 4.8 6.4 0.00 0.00 0.00 74 1018.0
20260906180557 17 18 1.6 6.4 0.00 0.00 0.00 74 1018.3
20260906180056 16 204 1.6 3.2 0.00 0.00 0.00 75 1018.1
20260906175555 16 310 3.2 4.8 0.00 0.00 0.00 74 1018.3
20260906175050 16 287 3.2 4.8 0.00 0.00 0.00 74 1018.4
20260906174548 16 202 0.0 3.2 0.00 0.00 0.00 75 1018.4
20260906174043 16 219 1.6 3.2 0.00 0.00 0.00 75 1018.5
20260906173538 16 269 1.6 4.8 0.00 0.00 0.00 76 1018.4
20260906173035 16 267 1.6 4.8 0.00 0.00 0.00 77 1018.6
20260906172534 15 216 1.6 3.2 0.00 0.00 0.00 77 1018.7
20260906172030 15 210 1.6 6.4 0.00 0.00 0.00 77 1018.7
20260906171525 15 308 3.2 4.8 0.00 0.00 0.00 78 1018.8
20260906171020 15 199 1.6 3.2 0.00 0.00 0.00 78 1018.9
20260906170516 15 221 3.2 6.4 0.00 0.00 0.00 78 1018.9
20260906170015 15 202 1.6 3.2 0.00 0.00 0.00 79 1018.9
20260906165512 15 234 3.2 9.7 0.00 0.00 0.00 78 1018.8
20260906165007 15 211 1.6 9.7 0.00 0.00 0.00 78 1018.9
20260906164506 15 211 0.0 3.2 0.00 0.00 0.00 79 1019.1
20260906164002 15 281 3.2 4.8 0.00 0.00 0.00 79 1019.1
20260906163457 15 190 1.6 6.4 0.00 0.00 0.00 79 1019.1
20260906162956 15 205 1.6 4.8 0.00 0.00 0.00 80 1018.9
20260906162454 15 212 1.6 4.8 0.00 0.00 0.00 81 1018.9
20260906161949 15 220 3.2 6.4 0.00 0.00 0.00 81 1019.1
20260906161443 15 279 3.2 6.4 0.00 0.00 0.00 81 1019.3
20260906160943 15 229 3.2 9.7 0.00 0.00 0.00 82 1019.2
20260906160436 15 300 6.4 6.4 0.00 0.00 0.00 84 1019.4
20260906155935 15 281 1.6 3.2 0.00 0.00 0.00 86 1019.4
20260906155434 15 203 1.6 4.8 0.00 0.00 0.00 86 1019.5
20260906154930 15 206 1.6 4.8 0.00 0.00 0.00 87 1019.6
20260906154431 15 204 1.6 4.8 0.00 0.00 0.00 87 1019.5
20260906153929 15 181 3.2 9.7 0.00 0.00 0.00 88 1019.4
20260906153428 15 207 1.6 3.2 0.00 0.00 0.00 88 1019.3
20260906152923 15 233 1.6 3.2 0.00 0.00 0.00 89 1019.6
20260906152418 15 186 4.8 4.8 0.00 0.00 0.00 90 1019.5
20260906151917 15 199 1.6 3.2 0.00 0.00 0.00 90 1019.7
20260906151413 15 187 1.6 1.6 0.00 0.00 0.00 91 1019.5
20260906150909 15 195 3.2 3.2 0.00 0.00 0.00 91 1019.6
20260906150409 15 202 3.2 4.8 0.00 0.00 0.00 91 1019.7
20260906145908 15 199 1.6 1.6 0.00 0.00 0.00 91 1019.5
20260906145407 15 184 3.2 6.4 0.00 0.00 0.00 91 1019.6
20260906144902 14 181 4.8 9.7 0.00 0.00 0.00 91 1020.0
20260906144357 14 207 3.2 6.4 0.00 0.00 0.00 91 1019.9
20260906143852 15 217 3.2 6.4 0.00 0.00 0.00 90 1019.8
20260906143348 15 199 3.2 6.4 0.00 0.00 0.00 89 1019.6
20260906142844 15 192 1.6 1.6 0.00 0.00 0.00 88 1019.7
20260906142338 15 192 3.2 3.2 0.00 0.00 0.00 87 1019.9
20260906141838 15 198 1.6 6.4 0.00 0.00 0.00 87 1019.8
20260906141333 15 205 6.4 9.7 0.00 0.00 0.00 86 1019.9
20260906140832 15 189 6.4 11.3 0.00 0.00 0.00 86 1020.0
20260906140322 15 193 3.2 4.8 0.00 0.00 0.00 86 1019.7
20260906135819 15 215 3.2 6.4 0.00 0.00 0.00 86 1019.8
20260906135314 15 199 6.4 9.7 0.00 0.00 0.00 85 1019.8
20260906134809 15 208 1.6 3.2 0.00 0.00 0.00 85 1019.7
20260906134304 15 196 6.4 9.7 0.00 0.00 0.00 84 1019.8
20260906133800 15 197 8.0 11.3 0.00 0.00 0.00 82 1019.7
20260906133255 15 206 4.8 6.4 0.00 0.00 0.00 79 1019.7
20260906132751 15 206 1.6 1.6 0.00 0.00 0.00 79 1019.6
20260906132246 15 211 1.6 1.6 0.00 0.00 0.00 79 1019.6
20260906131741 15 204 4.8 4.8 0.00 0.00 0.00 79 1019.9
20260906131236 15 199 1.6 3.2 0.00 0.00 0.00 79 1019.8
20260906130732 15 200 3.2 3.2 0.00 0.00 0.00 79 1019.6
20260906130227 15 188 1.6 3.2 0.00 0.00 0.00 79 1019.7
20260906125725 15 182 1.6 3.2 0.00 0.00 0.00 80 1019.6
20260906125223 15 191 3.2 3.2 0.00 0.00 0.00 80 1019.8
20260906124718 15 193 1.6 3.2 0.00 0.00 0.00 79 1019.5
20260906124214 15 195 1.6 3.2 0.00 0.00 0.00 79 1019.6
20260906123712 15 186 0.0 0.0 0.00 0.00 0.00 80 1019.7
20260906123208 15 166 0.0 0.0 0.00 0.00 0.00 79 1019.5
20260906122707 15 64 1.6 3.2 0.00 0.00 0.00 79 1019.2
20260906122202 15 178 0.0 0.0 0.00 0.00 0.00 79 1019.7
20260906121659 15 189 0.0 1.6 0.00 0.00 0.00 79 1019.6
20260906121155 15 182 0.0 1.6 0.00 0.00 0.00 79 1019.6
20260906120650 15 180 0.0 0.0 0.00 0.00 0.00 80 1019.3
20260906120147 15 153 0.0 0.0 0.00 0.00 0.00 80 1019.2
20260906115648 15 143 0.0 0.0 0.00 0.00 0.00 79 1019.2
20260906115143 15 143 0.0 0.0 0.00 0.00 0.00 80 1019.1
20260906114642 15 155 0.0 1.6 0.00 0.00 0.00 79 1019.1
20260906114137 15 163 0.0 0.0 0.00 0.00 0.00 79 1019.2
20260906113632 15 150 0.0 1.6 0.00 0.00 0.00 79 1019.2
20260906113132 15 69 3.2 4.8 0.00 0.00 0.00 79 1019.1
20260906112631 15 9 1.6 3.2 0.00 0.00 0.00 79 1019.2
20260906112129 15 130 0.0 1.6 0.00 0.00 0.00 78 1019.4
20260906111628 15 55 1.6 1.6 0.00 0.00 0.00 78 1019.2
20260906111123 15 126 0.0 1.6 0.00 0.00 0.00 78 1019.1
20260906110618 15 346 0.0 3.2 0.00 0.00 0.00 78 1019.1
20260906110118 15 46 1.6 3.2 0.00 0.00 0.00 78 1019.2
20260906105612 15 119 1.6 3.2 0.00 0.00 0.00 78 1019.3
20260906105108 15 21 6.4 6.4 0.00 0.00 0.00 77 1019.2
20260906104608 15 100 1.6 4.8 0.00 0.00 0.00 78 1019.4
20260906104101 15 140 0.0 1.6 0.00 0.00 0.00 77 1019.4
20260906103600 15 28 1.6 3.2 0.00 0.00 0.00 77 1019.4
20260906103055 15 31 3.2 3.2 0.00 0.00 0.00 77 1019.3
20260906102555 15 22 3.2 4.8 0.00 0.00 0.00 77 1019.4
20260906102050 15 49 1.6 4.8 0.00 0.00 0.00 76 1019.3
20260906101544 15 355 1.6 3.2 0.00 0.00 0.00 76 1019.3
20260906101040 15 359 3.2 4.8 0.00 0.00 0.00 76 1019.4
20260906100536 15 21 1.6 3.2 0.00 0.00 0.00 75 1019.7
20260906100035 15 41 0.0 4.8 0.00 0.00 0.00 75 1019.6
20260906095529 15 350 3.2 6.4 0.00 0.00 0.00 75 1019.5
20260906095025 15 32 3.2 6.4 0.00 0.00 0.00 74 1019.3
20260906094524 15 128 0.0 4.8 0.00 0.00 0.00 74 1019.2
20260906094020 15 84 1.6 9.7 0.00 0.00 0.00 74 1019.3
20260906093516 15 340 3.2 3.2 0.00 0.00 0.00 74 1019.1
20260906093011 15 28 3.2 9.7 0.00 0.00 0.00 74 1019.1
20260906092511 16 5 4.8 6.4 0.00 0.00 0.00 73 1018.7
20260906092006 16 358 3.2 4.8 0.00 0.00 0.00 73 1018.9
20260906091501 16 152 0.0 1.6 0.00 0.00 0.00 73 1018.8
20260906090958 16 67 3.2 4.8 0.00 0.00 0.00 73 1019.1
20260906090453 16 338 3.2 4.8 0.00 0.00 0.00 73 1018.9
20260906085953 16 17 4.8 4.8 0.00 0.00 0.00 73 1018.9
20260906085452 16 13 3.2 3.2 0.00 0.00 0.00 73 1018.8
20260906084951 16 110 1.6 1.6 0.00 0.00 0.00 73 1019.1
20260906084446 16 93 1.6 1.6 0.00 0.00 0.00 72 1018.9
20260906083945 16 116 0.0 0.0 0.00 0.00 0.00 73 1019.5
20260906083441 16 109 0.0 1.6 0.00 0.00 0.00 72 1019.3
20260906082940 16 103 0.0 3.2 0.00 0.00 0.00 72 1019.3
20260906082436 16 105 0.0 1.6 0.00 0.00 0.00 72 1019.4
20260906081931 16 130 0.0 1.6 0.00 0.00 0.00 72 1019.5
20260906081426 16 2 0.0 1.6 0.00 0.00 0.00 72 1019.6
20260906080923 16 104 1.6 1.6 0.00 0.00 0.00 72 1019.8
20260906080419 16 87 1.6 3.2 0.00 0.00 0.00 72 1019.8
20260906075919 16 106 1.6 4.8 0.00 0.00 0.00 71 1019.7
20260906075414 16 94 1.6 1.6 0.00 0.00 0.00 71 1019.8
20260906074909 16 49 1.6 3.2 0.00 0.00 0.00 71 1019.9
20260906074408 16 73 1.6 3.2 0.00 0.00 0.00 70 1020.1
20260906073907 16 152 0.0 3.2 0.00 0.00 0.00 70 1020.2
20260906073402 16 156 0.0 1.6 0.00 0.00 0.00 70 1020.4
20260906072859 16 63 1.6 3.2 0.00 0.00 0.00 70 1020.2
20260906072354 16 147 0.0 0.0 0.00 0.00 0.00 70 1020.5
20260906071850 16 176 0.0 0.0 0.00 0.00 0.00 70 1020.5
20260906071345 16 169 0.0 0.0 0.00 0.00 0.00 70 1020.5
20260906070841 16 179 0.0 0.0 0.00 0.00 0.00 70 1020.6
20260906070337 16 187 0.0 0.0 0.00 0.00 0.00 69 1020.6
20260906065832 16 188 0.0 0.0 0.00 0.00 0.00 69 1020.4
20260906065326 16 188 0.0 0.0 0.00 0.00 0.00 69 1020.6
20260906064823 16 188 0.0 1.6 0.00 0.00 0.00 69 1020.6
20260906064319 15 188 1.6 1.6 0.00 0.00 0.00 69 1020.6
20260906063818 15 191 0.0 1.6 0.00 0.00 0.00 70 1020.6
20260906063314 15 194 0.0 0.0 0.00 0.00 0.00 69 1020.4
20260906062809 15 195 1.6 3.2 0.00 0.00 0.00 69 1020.5
20260906062308 15 190 0.0 1.6 0.00 0.00 0.00 69 1020.5
20260906061804 15 195 0.0 0.0 0.00 0.00 0.00 70 1020.6
20260906061300 15 200 1.6 3.2 0.00 0.00 0.00 69 1020.6
20260906060755 15 196 1.6 1.6 0.00 0.00 0.00 69 1020.7
20260906060253 15 185 0.0 1.6 0.00 0.00 0.00 70 1020.6
20260906055748 15 193 1.6 1.6 0.00 0.00 0.00 71 1020.7
20260906055243 15 193 0.0 0.0 0.00 0.00 0.00 70 1020.6
20260906054738 15 190 0.0 0.0 0.00 0.00 0.00 70 1020.4
20260906054234 15 197 0.0 1.6 0.00 0.00 0.00 69 1020.2
20260906053730 15 185 0.0 0.0 0.00 0.00 0.00 69 1020.5
20260906053226 15 186 0.0 1.6 0.00 0.00 0.00 69 1020.1
20260906052721 15 190 0.0 0.0 0.00 0.00 0.00 69 1020.1
20260906052217 15 192 0.0 0.0 0.00 0.00 0.00 68 1020.2
20260906051714 16 196 0.0 0.0 0.00 0.00 0.00 67 1020.1
20260906051213 16 198 1.6 1.6 0.00 0.00 0.00 66 1019.8
20260906050708 16 208 3.2 3.2 0.00 0.00 0.00 66 1020.0
20260906050203 16 191 0.0 0.0 0.00 0.00 0.00 67 1020.0
20260906045702 16 187 0.0 0.0 0.00 0.00 0.00 66 1020.0
20260906045157 16 188 0.0 0.0 0.00 0.00 0.00 66 1019.9
20260906044653 16 186 0.0 0.0 0.00 0.00 0.00 65 1020.0
20260906044148 16 70 0.0 1.6 0.00 0.00 0.00 65 1019.8
20260906043644 17 198 1.6 1.6 0.00 0.00 0.00 64 1019.8
20260906043140 17 223 0.0 1.6 0.00 0.00 0.00 64 1019.9
20260906042639 17 183 0.0 0.0 0.00 0.00 0.00 63 1020.0
20260906042133 17 291 3.2 3.2 0.00 0.00 0.00 63 1019.6
20260906041629 17 355 3.2 4.8 0.00 0.00 0.00 63 1019.4
20260906041130 17 78 1.6 6.4 0.00 0.00 0.00 63 1019.2
20260906040625 17 28 4.8 6.4 0.00 0.00 0.00 62 1019.1
20260906040121 17 72 1.6 6.4 0.00 0.00 0.00 62 1019.3
20260906035616 17 85 3.2 6.4 0.00 0.00 0.00 61 1019.3
20260906035112 17 338 3.2 9.7 0.00 0.00 0.00 61 1019.4
20260906034611 18 33 4.8 9.7 0.00 0.00 0.00 60 1019.3
20260906034106 18 336 1.6 12.9 0.00 0.00 0.00 60 1018.9
20260906033602 18 20 3.2 12.9 0.00 0.00 0.00 59 1019.1
20260906033057 18 24 6.4 11.3 0.00 0.00 0.00 58 1018.9
20260906032554 18 17 8.0 11.3 0.00 0.00 0.00 58 1018.8
20260906032053 18 56 4.8 11.3 0.00 0.00 0.00 57 1018.9
20260906031549 18 72 1.6 9.7 0.00 0.00 0.00 57 1018.8
20260906031044 18 324 3.2 11.3 0.00 0.00 0.00 57 1018.7
20260906030544 18 5 3.2 9.7 0.00 0.00 0.00 56 1018.7
20260906030044 19 55 4.8 16.1 0.00 0.00 0.00 55 1018.4
20260906025544 19 35 4.8 9.7 0.00 0.00 0.00 55 1018.6
20260906025042 20 10 4.8 14.5 0.00 0.00 0.00 54 1018.3
20260906024537 20 40 8.0 11.3 0.00 0.00 0.00 53 1018.1
20260906024037 20 66 6.4 12.9 0.00 0.00 0.00 52 1018.0
20260906023533 20 69 6.4 14.5 0.00 0.00 0.00 50 1017.7
20260906023028 21 351 9.7 17.7 0.00 0.00 0.00 49 1017.5
20260906022523 21 48 9.7 30.6 0.00 0.00 0.00 47 1017.3
20260906022019 21 351 9.7 25.7 0.00 0.00 0.00 46 1017.3
20260906021515 23 346 9.7 24.1 0.00 0.00 0.00 41 1017.2
20260906021008 23 63 8.0 12.9 0.00 0.00 0.00 36 1017.0
20260906020508 23 30 3.2 6.4 0.00 0.00 0.00 37 1016.9
20260906020007 23 11 6.4 6.4 0.00 0.00 0.00 36 1017.0
20260906015506 23 28 6.4 9.7 0.00 0.00 0.00 36 1016.7
20260906015007 23 48 3.2 6.4 0.00 0.00 0.00 36 1016.8
20260906014501 24 5 1.6 9.7 0.00 0.00 0.00 35 1016.7
20260906013957 24 17 3.2 9.7 0.00 0.00 0.00 35 1016.6
20260906013452 24 54 3.2 9.7 0.00 0.00 0.00 35 1016.5
20260906012943 24 30 9.7 11.3 0.00 0.00 0.00 35 1016.7
20260906012442 25 339 6.4 9.7 0.00 0.00 0.00 34 1016.6
20260906011942 25 98 4.8 16.1 0.00 0.00 0.00 34 1016.6
20260906011437 25 334 6.4 9.7 0.00 0.00 0.00 34 1016.6
20260906010932 25 65 1.6 6.4 0.00 0.00 0.00 34 1016.8
20260906010428 25 16 8.0 12.9 0.00 0.00 0.00 33 1016.8
20260906005924 25 32 8.0 14.5 0.00 0.00 0.00 33 1016.6
20260906005423 25 40 4.8 6.4 0.00 0.00 0.00 33 1016.8
20260906004921 26 29 3.2 12.9 0.00 0.00 0.00 33 1016.8
20260906004416 26 37 4.8 11.3 0.00 0.00 0.00 32 1016.8
20260906003912 26 355 6.4 9.7 0.00 0.00 0.00 33 1016.7
20260906003407 26 43 8.0 11.3 0.00 0.00 0.00 32 1016.7
20260906002902 26 74 6.4 12.9 0.00 0.00 0.00 33 1016.8
20260906002401 26 102 1.6 3.2 0.00 0.00 0.00 33 1016.7
20260906001857 26 41 6.4 12.9 0.00 0.00 0.00 32 1016.8
20260906001354 26 53 4.8 4.8 0.00 0.00 0.00 32 1016.9
20260906000854 26 43 6.4 12.9 0.00 0.00 0.00 31 1017.1
20260906000355 26 49 4.8 11.3 0.00 0.00 0.00 32 1016.9
20260905235848 26 23 4.8 4.8 0.00 0.00 0.00 32 1016.8
20260905235342 26 351 4.8 9.7 0.00 0.00 0.00 31 1017.0
20260905234838 26 359 4.8 4.8 0.00 0.00 0.00 31 1017.1
20260905234333 26 333 8.0 14.5 0.00 0.00 0.00 31 1016.9
20260905233828 26 9 4.8 11.3 0.00 0.00 0.00 31 1017.0
20260905233323 26 85 4.8 6.4 0.00 0.00 0.00 30 1017.1
20260905232822 26 344 1.6 9.7 0.00 0.00 0.00 32 1017.0
20260905232319 26 45 1.6 3.2 0.00 0.00 0.00 31 1016.8
20260905231814 26 61 4.8 9.7 0.00 0.00 0.00 31 1017.0
20260905231309 26 348 4.8 11.3 0.00 0.00 0.00 31 1017.0
20260905230805 26 17 4.8 9.7 0.00 0.00 0.00 32 1017.0
20260905230303 26 29 4.8 11.3 0.00 0.00 0.00 31 1017.3